DECAYED

STARLINK-1060, 44765 (Decayed)

Orbit data source: Space-Track

STARLINK-1060, 44765 was a payload satellite owned by SpaceX/Seattle (US) in LEO that was launched on Mon, 11 Nov 2019 UTC via an FALCON 9 launch vehicle from the Air Force Eastern Test Range (AFETR). Payload-class satellites include a variety of spacecraft equipped with specific instruments for various scientific and technological missions. These include communications satellites like Starlink; space stations such as the ISS; scientific satellites like the Hubble; Earth observation satellites from companies like Planet Labs, Umbra, and HawkEye 360; GPS; miniature CubeSats for education and research; and military/defense satellites.

Not visible in the next 10 days
Identifier
44765, 2019-074BE
Orbit
Decayed
Country
Flag of USUS
Related business
Manufacturer
SpaceX/Seattle
Mission
Decayed Commercial Communications
Bus & Motor
STARLINK, Unknown motor
Mass
260 kg wet, ~248 kg dry
Launch date (UTC)
2019-11-11 (6 years ago)
Launch vehicle
FALCON 9
Launch site
Air Force Eastern Test Range (AFETR)
Object type
Payload
Rocket body
Debris
Shape & HBR
Box + 1 Pan, 10.1 m
Radar Cross Section
13.562 m², Large (>1 m²)

Expand to show TLE details & history
Last TLE update: 3 months ago

TLE from 3 months ago
0 STARLINK-1060
1 44765U 19074BE  26045.13841613  .07058494  12386-4  56434-3 0  9997
2 44765  53.0244 238.4194 0005169 305.3063 160.2648 16.39209600345946
Epoch: 2026-02-14T03:19Z
TLE epoch observation values (Epoch: 2026-02-14T03:19:19.153Z)
Latitude
50.46472°
Longitude
159.3385°
Altitude
176.955 km
Speed
7.805 km/s
True Right ascension
23h 33m 20s
True Declination
50° 16' 51"
Sunlit
Object was in daylight at epoch
Visualization orbit readout
Latitude
Unknown
Longitude
Unknown
Altitude
Unknown
Speed
Unknown
Apparent Right ascension
Unknown
Apparent Declination
Unknown
Sunlit
N/A
Visualization observer readout
Local Sidereal Time
16:55:28
Azimuth
Unknown
Elevation
Unknown
Doppler factor
Unknown
Orbital elements
Apogee altitude
171.581 km
Perigee altitude
164.813 km
Semi-major axis
6,546.334 km
Eccentricity
0.00052
Inclination
53.0244°
RAAN
238.4194°
Arg. of periapsis
305.3063°
True anomaly
160.28479°
Mean anomaly
160.2648°
Eccentric anomaly
160.2748°
Mean motion
4.09775 °/min
Orbital period
87.85 mins
BSTAR
0.00056434
Loading maneuver chart data...
Computing Atmospheric mass density...
Loading historical data...
Loading historical data...
Loading historical data...
Loading historical data...
Loading historical data...
Loading historical data...
Loading historical data...

Documentation

Showing up to 5 results
|